Tracking 28790 objects as of 19-Apr-2024
HD Live streaming from Space Station
objects crossing your sky now

COSMOS 447

Track COSMOS 447 now!
10-day predictions
COSMOS 447 is classified as:


NORAD ID: 5550
Int'l Code: 1971-086D
Perigee: 1,417.6 km
Apogee: 1,520.6 km
Inclination: 74.0 °
Period: 115.1 minutes
Semi major axis: 7840 km
RCS: 0.7637 m2 (medium)
Launch date: October 13, 1971
Source: Commonwealth of Independent States (former USSR) (CIS)
Launch site: PLESETSK MISSILE AND SPACE COMPLEX (PKMTR)
Your satellite tracking list
Your tracking list is empty




NASA's NSSDC Master Catalog

Two Line Element Set (TLE):
1  5550U 71086D   24110.53202194  .00000016  00000-0  20535-3 0  9996
2  5550  74.0261 278.4549 0065651  70.1232 347.7767 12.50603778397777
Source of the keplerian elements: AFSPC